{"data":{"norad_id":43231,"intl_designator":"2018-024A","name":"O3B FM15","alt_names":[],"object_type":"PAYLOAD","status":"ACTIVE","operator":null,"country":"O3B","launch_date":"2018-03-09","launch_site_code":"FRGUI","launch_vehicle":null,"mission":null,"orbit_class":"UNKNOWN","rcs_meters":null,"size_class":null,"mass_kg":null,"dimensions":null,"purposes":["comms"],"wikipedia_slug":null,"has_3d_model":false,"image_url":null,"decayed_at":null,"tle_current":{"epoch":"2026-05-23T16:56:52.841760Z","epoch_age_seconds":190024,"freshness":"STALE","line1":"1 43231U 18024A   26143.70616715 -.00000025  00000+0  00000+0 0  9993","line2":"2 43231   0.0512   3.5814 0002630  55.5771 300.8664  5.00115757149805","mean_motion":5.00115757,"eccentricity":0.000263,"inclination_deg":0.0512,"raan_deg":3.5814,"arg_perigee_deg":55.5771,"mean_anomaly_deg":300.8664,"bstar":0,"rev_number":14980,"period_min":287.93333940086,"perigee_km":8062.0864920896,"apogee_km":8069.6840478036,"semimajor_km":14444.022269947,"source":"CELESTRAK","updated_at":"2026-05-25T13:38:14.513434Z"}}}